Weather History for KGBD - January, 2012

Change the Weather History Date:

Monday, January 30, 2012

  Actual Average Record
Temperature  
Mean Temperature 51 °F -  
Max Temperature 69 °F 46 °F 50 °F (2014)
Min Temperature 33 °F 21 °F 28 °F (2014)
Degree Days  
Heating Degree Days 14    
Growing Degree Days 1 (Base 50)    
Moisture  
Dew Point 22 °F    
Average Humidity 39    
Maximum Humidity 57    
Minimum Humidity 17    
Precipitation  
Precipitation 0.00 in - - ()
Sea Level Pressure  
Sea Level Pressure 29.89 in    
Wind  
Wind Speed 11 mph (SSW)    
Max Wind Speed 24 mph    
Max Gust Speed 26 mph    
Visibility 10 miles    
Events      
Averages and records for this station are not official NWS values.
T = Trace of Precipitation, MM = Missing Value Source: NWS Daily Summary

Daily Weather History Graph

Daily Weather History Graph

Search for Another Location

Airport or City:

Trip Planner

Search our weather history database for the weather conditions in past years. The results will help you decide how hot, cold, wet, or windy it might be!

Date:

Astronomy

Jan. 30, 2012 Rise Set
Actual Time 7:42 AM CST 5:55 PM CST
Civil Twilight 7:14 AM CST 6:23 PM CST
Nautical Twilight 6:42 AM CST 6:54 PM CST
Astronomical Twilight 6:11 AM CST 7:26 PM CST
Moon 11:13 AM CST (1/30) 12:33 AM CST (1/30)
Length of Visible Light 11h 08m
Length of Day
10h 12m
Waxing Crescent, 46% of the Moon is Illuminated
Jan 30
Waxing Crescent
Jan 30
First Quarter
Feb 7
Full
Feb 14
Last Quarter
Feb 21
New

Hourly Weather History & Observations

Time (CST) Temp. Windchill Dew Point Humidity Pressure Visibility Wind Dir Wind Speed Gust Speed Precip Events Conditions
12:15 AM 39.2 °F 32.0 °F 24.8 °F 56% 30.03 in 10.0 mi SW 11.5 mph - N/A   Clear
12:35 AM 37.4 °F 29.3 °F 21.2 °F 52% 30.03 in 10.0 mi SW 12.7 mph - N/A   Clear
12:55 AM 39.2 °F 31.2 °F 23.0 °F 52% 30.02 in 10.0 mi SW 13.8 mph - N/A   Clear
1:15 AM 39.2 °F 32.5 °F 21.2 °F 49% 30.01 in 10.0 mi SW 10.4 mph - N/A   Clear
1:35 AM 37.4 °F 30.3 °F 21.2 °F 52% 30.00 in 10.0 mi SW 10.4 mph - N/A   Clear
1:55 AM 37.4 °F 30.3 °F 21.2 °F 52% 30.00 in 10.0 mi SW 10.4 mph - N/A   Clear
2:15 AM 37.4 °F 29.8 °F 21.2 °F 52% 29.99 in 10.0 mi SW 11.5 mph - N/A   Clear
2:35 AM 35.6 °F 28.0 °F 19.4 °F 52% 29.99 in 10.0 mi SSW 10.4 mph - N/A   Clear
2:55 AM 35.6 °F 28.0 °F 19.4 °F 52% 29.98 in 10.0 mi SSW 10.4 mph - N/A   Clear
3:15 AM 35.6 °F 27.5 °F 19.4 °F 52% 29.97 in 10.0 mi SW 11.5 mph - N/A   Clear
3:35 AM 35.6 °F 28.6 °F 19.4 °F 52% 29.98 in 10.0 mi SSW 9.2 mph - N/A   Clear
3:55 AM 35.6 °F 29.9 °F 19.4 °F 52% 29.97 in 10.0 mi SW 6.9 mph - N/A   Clear
4:15 AM 33.8 °F 27.7 °F 17.6 °F 52% 29.97 in 10.0 mi SW 6.9 mph - N/A   Clear
4:35 AM 35.6 °F 27.5 °F 19.4 °F 52% 29.96 in 10.0 mi SW 11.5 mph - N/A   Clear
4:55 AM 35.6 °F 26.6 °F 17.6 °F 48% 29.95 in 10.0 mi SW 13.8 mph - N/A   Clear
5:15 AM 37.4 °F 28.9 °F 17.6 °F 45% 29.94 in 10.0 mi SW 13.8 mph - N/A   Clear
5:35 AM 37.4 °F 28.9 °F 17.6 °F 45% 29.93 in 10.0 mi SW 13.8 mph 19.6 mph N/A   Clear
5:55 AM 37.4 °F 29.3 °F 15.8 °F 41% 29.93 in 10.0 mi SW 12.7 mph - N/A   Clear
6:15 AM 35.6 °F 27.5 °F 15.8 °F 44% 29.93 in 10.0 mi SW 11.5 mph - N/A   Clear
6:35 AM 35.6 °F 27.5 °F 15.8 °F 44% 29.93 in 10.0 mi SW 11.5 mph - N/A   Clear
6:55 AM 35.6 °F 27.1 °F 17.6 °F 48% 29.92 in 10.0 mi SW 12.7 mph - N/A   Clear
7:15 AM 35.6 °F 27.5 °F 15.8 °F 44% 29.93 in 10.0 mi SW 11.5 mph - N/A   Clear
7:35 AM 35.6 °F 28.6 °F 15.8 °F 44% 29.93 in 10.0 mi SW 9.2 mph - N/A   Clear
7:55 AM 33.8 °F 26.4 °F 17.6 °F 52% 29.93 in 10.0 mi SW 9.2 mph - N/A   Clear
8:15 AM 35.6 °F 28.0 °F 17.6 °F 48% 29.92 in 10.0 mi SW 10.4 mph - N/A   Clear
8:35 AM 37.4 °F 32.1 °F 17.6 °F 45% 29.93 in 10.0 mi West 6.9 mph - N/A   Clear
8:55 AM 39.2 °F 33.0 °F 19.4 °F 45% 29.93 in 10.0 mi SW 9.2 mph - N/A   Clear
9:15 AM 42.8 °F 39.3 °F 19.4 °F 39% 29.93 in 10.0 mi West 5.8 mph - N/A   Clear
9:35 AM 44.6 °F 41.4 °F 21.2 °F 39% 29.93 in 10.0 mi SW 5.8 mph - N/A   Clear
10:15 AM 53.6 °F - 23.0 °F 30% 29.92 in 10.0 mi West 6.9 mph - N/A   Clear
10:35 AM 55.4 °F - 23.0 °F 29% 29.91 in 10.0 mi SSW 8.1 mph - N/A   Clear
10:55 AM 55.4 °F - 21.2 °F 26% 29.92 in 10.0 mi SSW 8.1 mph - N/A   Clear
11:15 AM 55.4 °F - 21.2 °F 26% 29.91 in 10.0 mi SSW 9.2 mph - N/A   Clear
11:35 AM 57.2 °F - 21.2 °F 25% 29.90 in 10.0 mi SW 8.1 mph - N/A   Clear
11:55 AM 59.0 °F - 21.2 °F 23% 29.90 in 10.0 mi SW 8.1 mph - N/A   Clear
12:15 PM 59.0 °F - 21.2 °F 23% 29.89 in 10.0 mi SSW 5.8 mph - N/A   Clear
12:35 PM 62.6 °F - 23.0 °F 22% 29.87 in 10.0 mi South 6.9 mph - N/A   Clear
12:55 PM 64.4 °F - 24.8 °F 22% 29.86 in 10.0 mi South 4.6 mph - N/A   Clear
1:15 PM 64.4 °F - 24.8 °F 22% 29.84 in 10.0 mi SSE 6.9 mph - N/A   Clear
1:35 PM 66.2 °F - 24.8 °F 21% 29.82 in 10.0 mi South 12.7 mph 17.3 mph N/A   Clear
2:15 PM 69.8 °F - 23.0 °F 17% 29.79 in 10.0 mi South 12.7 mph 23.0 mph N/A   Clear
2:35 PM 69.8 °F - 23.0 °F 17% 29.78 in 10.0 mi South 13.8 mph - N/A   Clear
2:55 PM 68.0 °F - 23.0 °F 18% 29.78 in 10.0 mi South 16.1 mph - N/A   Clear
3:15 PM 68.0 °F - 24.8 °F 20% 29.78 in 10.0 mi South 20.7 mph 26.5 mph N/A   Clear
3:35 PM 68.0 °F - 24.8 °F 20% 29.78 in 10.0 mi South 20.7 mph - N/A   Clear
3:55 PM 66.2 °F - 23.0 °F 19% 29.77 in 10.0 mi South 19.6 mph 24.2 mph N/A   Clear
4:15 PM 64.4 °F - 28.4 °F 26% 29.77 in 10.0 mi South 24.2 mph - N/A   Clear
4:35 PM 62.6 °F - 26.6 °F 26% 29.78 in 10.0 mi South 21.9 mph 26.5 mph N/A   Clear
4:55 PM 62.6 °F - 26.6 °F 26% 29.78 in 10.0 mi South 18.4 mph 23.0 mph N/A   Clear
5:15 PM 59.0 °F - 26.6 °F 29% 29.78 in 10.0 mi South 11.5 mph - N/A   Clear
5:35 PM 53.6 °F - 26.6 °F 35% 29.78 in 10.0 mi South 9.2 mph - N/A   Clear
5:55 PM 53.6 °F - 28.4 °F 38% 29.78 in 10.0 mi South 10.4 mph - N/A   Clear
6:35 PM 46.4 °F 41.1 °F 28.4 °F 50% 29.79 in 10.0 mi South 11.5 mph - N/A   Clear
6:55 PM 44.6 °F 40.2 °F 28.4 °F 53% 29.80 in 10.0 mi South 8.1 mph - N/A   Clear
7:15 PM 44.6 °F 39.2 °F 26.6 °F 49% 29.80 in 10.0 mi South 10.4 mph - N/A   Clear
7:35 PM 44.6 °F 39.2 °F 24.8 °F 46% 29.80 in 10.0 mi South 10.4 mph - N/A   Clear
7:55 PM 44.6 °F 39.7 °F 26.6 °F 49% 29.81 in 10.0 mi South 9.2 mph - N/A   Clear
8:35 PM 44.6 °F 38.8 °F 30.2 °F 57% 29.80 in 10.0 mi South 11.5 mph - N/A   Clear
8:55 PM 46.4 °F 40.4 °F 33.8 °F 62% 29.80 in 10.0 mi South 13.8 mph - N/A   Clear
9:15 PM 46.4 °F 40.4 °F 33.8 °F 62% 29.80 in 10.0 mi South 13.8 mph - N/A   Clear
9:35 PM 46.4 °F 40.4 °F 35.6 °F 66% 29.80 in 10.0 mi South 13.8 mph - N/A   Clear
9:55 PM 44.6 °F 39.2 °F 35.6 °F 71% 29.80 in 10.0 mi South 10.4 mph - N/A   Clear
10:15 PM 42.8 °F 37.5 °F 33.8 °F 70% 29.80 in 10.0 mi South 9.2 mph - N/A   Clear
10:55 PM 37.4 °F 30.8 °F 32.0 °F 81% 29.79 in 10.0 mi South 9.2 mph - N/A   Clear
11:15 PM 39.2 °F 32.0 °F 33.8 °F 81% 29.78 in 10.0 mi South 11.5 mph - N/A   Clear
11:55 PM 39.2 °F 33.6 °F 35.6 °F 87% 29.77 in 10.0 mi South 8.1 mph - N/A   Clear